Preview of NWS' New Version of Forecast
This preview is not operational and should not be used for support decisions.

Regional Weather Roundup (RWR)

Issued by National Weather Service (NWS)

                            
000
ASUS45 KBOI 190210
RWRID 

IDAHO REGIONAL WEATHER ROUNDUP
NATIONAL WEATHER SERVICE BOISE ID
800 PM MDT THU APR 18 2019

NOTE: "FAIR" INDICATES FEW OR NO CLOUDS BELOW 12000 FEET
WITH NO SIGNIFICANT WEATHER AND/OR OBSTRUCTIONS TO VISIBILITY

IDZ012-014-190300-
SOUTHWEST IDAHO

  
CITY           SKY/WX    TMP DP  RH WIND       PRES   REMARKS
BOISE          CLEAR     71  37  28 N3        30.16F                  
CALDWELL       CLEAR     68  44  42 NE5       30.16F                  
MOUNTAIN HOME  PTCLDY    68  41  36 NW5       30.17F                  
$$

IDZ016-017-190300-
SOUTHCENTRAL IDAHO

  
CITY           SKY/WX    TMP DP  RH WIND       PRES   REMARKS
BURLEY         CLEAR     62  32  32 W5        30.22F                  
JEROME         CLEAR     63  36  36 SW7       30.22F                  
TWIN FALLS     CLEAR     63  33  32 NW3       30.23F                  
$$

IDZ019>023-190300-
SOUTHEAST IDAHO

  
CITY           SKY/WX    TMP DP  RH WIND       PRES   REMARKS
IDAHO FALLS    PTCLDY    60  32  34 S15       30.22F                  
POCATELLO      PTCLDY    59  36  42 SW12      30.23F                  
REXBURG        PTCLDY    60  34  37 SW10      30.21F                  
$$

IDZ006-010-011-018-031-032-190300-
CENTRAL IDAHO MOUNTAINS

  
CITY           SKY/WX    TMP DP  RH WIND       PRES   REMARKS
MCCALL         CLEAR     55  33  43 SW3       30.23F                  
HAILEY         CLEAR     57  32  38 W5        30.24F                  
STANLEY          N/A     52  28  39 CALM      30.30F                  
SALMON         NOT AVBL                                               
CHALLIS        CLEAR     64  29  26 W13       30.19S                  
$$

IDZ002-004-006-007-026-190300-
NORTHERN IDAHO

  
CITY           SKY/WX    TMP DP  RH WIND       PRES   REMARKS
LEWISTON       CLEAR     72  46  39 S3        30.07F                  
LOWELL         NOT AVBL                                               
COEUR D'ALENE  MOCLDY    62  48  60 SW9       30.09F                  
MULLAN PASS    CLOUDY    46  36  68 VRB3      30.18F                  
$$